Hourly Weather Acapulco

Today, 1 October, Thursday

Time Temperature Precipitation Wind Pressure Humidity
00:00 +26°C° 0 mm 2 mps 755 mmHg 88%
01:00 +26°C° 0 mm 2 mps 754 mmHg 87%
02:00 +26°C° 0 mm 2 mps 754 mmHg 86%
03:00 +26°C° 0 mm 1 mps 754 mmHg 83%
04:00 +26°C° 0 mm 1 mps 754 mmHg 81%
05:00 +27°C° 0 mm 1 mps 754 mmHg 79%
06:00 +28°C° 0 mm 1 mps 754 mmHg 76%
07:00 +29°C° 0 mm 1 mps 755 mmHg 73%
08:00 +31°C° 0 mm 1 mps 755 mmHg 70%
09:00 +31°C° 0 mm 1 mps 755 mmHg 67%
10:00 +32°C° 0 mm 2 mps 755 mmHg 65%
11:00 +34°C° 0 mm 2 mps 755 mmHg 62%
12:00 +34°C° 0 mm 3 mps 754 mmHg 63%
13:00 +34°C° 0 mm 3 mps 753 mmHg 65%
14:00 +34°C° 0 mm 4 mps 752 mmHg 66%
15:00 +33°C° 0.1 mm 4 mps 752 mmHg 71%
16:00 +30°C° 0.1 mm 4 mps 752 mmHg 77%
17:00 +29°C° 0.1 mm 4 mps 752 mmHg 83%
18:00 +29°C° 0.3 mm 4 mps 753 mmHg 85%
19:00 +28°C° 0.3 mm 4 mps 754 mmHg 87%
20:00 +28°C° 0.3 mm 3 mps 754 mmHg 90%
21:00 +27°C° 0 mm 3 mps 754 mmHg 89%
22:00 +27°C° 0 mm 2 mps 754 mmHg 89%
23:00 +27°C° 0 mm 2 mps 754 mmHg 89%

Tomorrow, 2 October, Friday

Time Temperature Precipitation Wind Pressure Humidity
00:00 +27°C° 0 mm 2 mps 754 mmHg 88%
01:00 +27°C° 0 mm 2 mps 753 mmHg 87%
02:00 +27°C° 0 mm 1 mps 753 mmHg 86%
03:00 +26°C° 0.1 mm 1 mps 753 mmHg 86%
04:00 +26°C° 0.1 mm 1 mps 753 mmHg 86%
05:00 +26°C° 0.1 mm 1 mps 753 mmHg 86%
06:00 +27°C° 0 mm 1 mps 753 mmHg 81%
07:00 +29°C° 0 mm 1 mps 754 mmHg 77%
08:00 +31°C° 0 mm 1 mps 754 mmHg 72%
09:00 +32°C° 0 mm 1 mps 754 mmHg 68%
10:00 +34°C° 0 mm 2 mps 754 mmHg 64%
11:00 +35°C° 0 mm 2 mps 754 mmHg 60%
12:00 +34°C° 0.2 mm 2 mps 753 mmHg 63%
13:00 +34°C° 0.2 mm 3 mps 753 mmHg 66%
14:00 +33°C° 0.2 mm 3 mps 752 mmHg 69%
15:00 +31°C° 0.1 mm 3 mps 752 mmHg 75%
16:00 +30°C° 0.1 mm 2 mps 752 mmHg 81%
17:00 +29°C° 0.1 mm 2 mps 752 mmHg 87%
18:00 +28°C° 0.1 mm 2 mps 752 mmHg 88%
19:00 +28°C° 0.1 mm 2 mps 753 mmHg 89%
20:00 +27°C° 0.1 mm 2 mps 754 mmHg 90%
21:00 +27°C° 0.1 mm 2 mps 754 mmHg 89%
22:00 +26°C° 0.1 mm 2 mps 754 mmHg 87%
23:00 +26°C° 0.1 mm 2 mps 754 mmHg 86%

Day after tomorrow, 3 October, Saturday

Time Temperature Precipitation Wind Pressure Humidity
00:00 +25°C° 0 mm 2 mps 754 mmHg 81%
01:00 +25°C° 0 mm 2 mps 753 mmHg 76%
02:00 +24°C° 0 mm 2 mps 753 mmHg 71%
03:00 +24°C° 0 mm 2 mps 753 mmHg 69%
04:00 +25°C° 0 mm 2 mps 753 mmHg 66%
05:00 +25°C° 0 mm 2 mps 753 mmHg 63%
06:00 +27°C° 0 mm 2 mps 754 mmHg 61%
07:00 +28°C° 0 mm 1 mps 754 mmHg 59%
08:00 +30°C° 0 mm 1 mps 755 mmHg 58%
09:00 +31°C° 0 mm 1 mps 754 mmHg 54%
10:00 +33°C° 0 mm 1 mps 754 mmHg 51%
11:00 +34°C° 0 mm 1 mps 754 mmHg 47%
12:00 +35°C° 0 mm 2 mps 753 mmHg 52%
13:00 +34°C° 0 mm 2 mps 752 mmHg 56%
14:00 +32°C° 0 mm 2 mps 752 mmHg 60%
15:00 +31°C° 0.1 mm 2 mps 752 mmHg 68%
16:00 +30°C° 0.1 mm 2 mps 752 mmHg 76%
17:00 +29°C° 0.1 mm 2 mps 752 mmHg 84%
18:00 +28°C° 0 mm 2 mps 752 mmHg 85%
19:00 +27°C° 0 mm 2 mps 753 mmHg 87%
20:00 +27°C° 0 mm 2 mps 754 mmHg 88%
21:00 +27°C° 0 mm 2 mps 754 mmHg 87%
22:00 +27°C° 0 mm 1 mps 754 mmHg 86%
23:00 +27°C° 0 mm 1 mps 754 mmHg 85%

4 October, Sunday

Time Temperature Precipitation Wind Pressure Humidity
00:00 +26°C° 0.2 mm 1 mps 754 mmHg 85%
01:00 +26°C° 0.2 mm 2 mps 754 mmHg 85%
02:00 +26°C° 0.2 mm 2 mps 754 mmHg 86%
03:00 +25°C° 0 mm 2 mps 754 mmHg 84%
04:00 +25°C° 0 mm 1 mps 754 mmHg 82%
05:00 +25°C° 0 mm 1 mps 754 mmHg 81%
06:00 +27°C° 0 mm 1 mps 754 mmHg 77%
07:00 +29°C° 0 mm 1 mps 754 mmHg 73%
08:00 +30°C° 0 mm 1 mps 755 mmHg 68%
09:00 +31°C° 0 mm 1 mps 755 mmHg 65%
10:00 +32°C° 0 mm 1 mps 755 mmHg 61%
11:00 +33°C° 0 mm 1 mps 755 mmHg 57%
12:00 +34°C° 0 mm 2 mps 754 mmHg 60%
13:00 +34°C° 0 mm 2 mps 753 mmHg 63%
14:00 +32°C° 0 mm 2 mps 753 mmHg 65%
15:00 +31°C° 0.2 mm 2 mps 753 mmHg 72%
16:00 +30°C° 0.2 mm 2 mps 753 mmHg 78%
17:00 +29°C° 0.2 mm 2 mps 753 mmHg 84%
18:00 +28°C° 0.1 mm 1 mps 754 mmHg 86%
19:00 +27°C° 0.1 mm 1 mps 754 mmHg 88%
20:00 +26°C° 0.1 mm 1 mps 755 mmHg 91%
21:00 +26°C° 0 mm 1 mps 755 mmHg 90%
22:00 +26°C° 0 mm 1 mps 755 mmHg 89%
23:00 +26°C° 0 mm 1 mps 755 mmHg 88%

5 October, Monday

Time Temperature Precipitation Wind Pressure Humidity
00:00 +26°C° 0 mm 1 mps 755 mmHg 88%
01:00 +26°C° 0 mm 1 mps 754 mmHg 88%
02:00 +26°C° 0 mm 1 mps 754 mmHg 89%
03:00 +26°C° 0 mm 1 mps 754 mmHg 88%
04:00 +26°C° 0 mm 1 mps 754 mmHg 87%
05:00 +25°C° 0 mm 2 mps 754 mmHg 86%
06:00 +27°C° 0 mm 1 mps 755 mmHg 81%
07:00 +28°C° 0 mm 1 mps 755 mmHg 77%
08:00 +30°C° 0 mm 1 mps 755 mmHg 72%
09:00 +31°C° 0 mm 1 mps 755 mmHg 68%
10:00 +32°C° 0 mm 1 mps 755 mmHg 63%
11:00 +34°C° 0 mm 2 mps 755 mmHg 59%
12:00 +34°C° 0 mm 2 mps 754 mmHg 62%
13:00 +32°C° 0 mm 2 mps 754 mmHg 65%
14:00 +33°C° 0 mm 3 mps 753 mmHg 67%
15:00 +31°C° 0 mm 3 mps 753 mmHg 73%
16:00 +30°C° 0 mm 3 mps 753 mmHg 78%
17:00 +29°C° 0 mm 3 mps 753 mmHg 83%
18:00 +28°C° 0 mm 2 mps 754 mmHg 86%
19:00 +27°C° 0 mm 2 mps 754 mmHg 88%
20:00 +26°C° 0 mm 1 mps 754 mmHg 91%
21:00 +26°C° 0 mm 1 mps 755 mmHg 91%
22:00 +26°C° 0 mm 1 mps 755 mmHg 91%
23:00 +26°C° 0 mm 1 mps 755 mmHg 91%

6 October, Tuesday

Time Temperature Precipitation Wind Pressure Humidity
00:00 +26°C° 0 mm 2 mps 755 mmHg 91%
01:00 +26°C° 0 mm 2 mps 754 mmHg 90%
02:00 +26°C° 0 mm 2 mps 754 mmHg 89%
03:00 +25°C° 0 mm 2 mps 754 mmHg 86%
04:00 +25°C° 0 mm 2 mps 754 mmHg 84%
05:00 +25°C° 0 mm 2 mps 754 mmHg 81%
06:00 +27°C° 0 mm 1 mps 754 mmHg 76%
07:00 +28°C° 0 mm 1 mps 755 mmHg 72%
08:00 +30°C° 0 mm 1 mps 755 mmHg 67%
09:00 +31°C° 0 mm 1 mps 755 mmHg 64%
10:00 +32°C° 0 mm 1 mps 755 mmHg 61%
11:00 +34°C° 0 mm 2 mps 754 mmHg 58%
12:00 +34°C° 0 mm 2 mps 754 mmHg 61%
13:00 +32°C° 0 mm 2 mps 753 mmHg 64%
14:00 +33°C° 0 mm 3 mps 752 mmHg 67%
15:00 +31°C° 0 mm 3 mps 752 mmHg 72%
16:00 +30°C° 0 mm 2 mps 753 mmHg 78%
17:00 +29°C° 0 mm 2 mps 753 mmHg 83%
18:00 +28°C° 0 mm 2 mps 753 mmHg 86%
19:00 +27°C° 0 mm 2 mps 754 mmHg 89%
20:00 +27°C° 0 mm 1 mps 754 mmHg 92%
21:00 +26°C° 0 mm 1 mps 755 mmHg 92%
22:00 +26°C° 0 mm 1 mps 755 mmHg 92%
23:00 +26°C° 0 mm 1 mps 755 mmHg 92%
Show more

We Need Your Consent

Meteoprog and our Service Providers may store and access personal data such as cookies, device identifiers or other similar technologies on your device and process such data to personalise content and ads, as well as provide social media features and to analyse the traffic.

  • Store and/or access information on your device

    Cookies, device identifiers or other information can be stored or accessed on your device for the purposes indicated above.

  • Personalised ads and content, ad and content measurement, audience insights, and products development

    Ads and content can be personalised based on a profile. More data can be added to better personalise ads and content. Ad and content performance can be measured. Insights about the audience who saw the ads and content can be derived. Such data can be used to develop or improve user’s experience, systems and software.

By clicking ‘I Agree’ you will allow the use of indicated cookies, device identifiers, web beacons or other similar technologies. Your settings can be changed in the browser on your device.

For certain purposes, legitimate interests may be relied on, rather than consent. You can read more about this in our Privacy and Cookie Policy.